Regional Weather Roundup
Issued by NWS Pendleton, OR

Home | Current Version | Previous Version | Text Only | Print | Product List | Glossary On
Versions: 1 2 3 4 5 6 7 8 9 10 11 12 13 14 15 16 17 18 19 20 21 22 23 24 25 26 27 28 29 30 31 32 33 34 35 36 37 38 39 40 41 42 43 44 45 46 47 48 49 50
678
ASUS46 KPDT 120825
RWRPDT
PENDLETON REGIONAL WEATHER ROUNDUP
NATIONAL WEATHER SERVICE PENDLETON OREGON
1200 AM PST FRI FEB 12 2016

NOTE: FAIR INDICATES FEW OR NO CLOUDS BELOW 12,000 FEET WITH NO
SIGNIFICANT WEATHER AND/OR OBSTRUCTIONS TO VISIBILITY.

# INDICATES UNOFFICIAL STATION AND DATA

WAZ520-120910-
EAST SLOPES OF WASHINGTON CASCADES

CITY            SKY/WX      TMP DP  RH  WIND    PRES   REMARKS
#BUMPING DAM    N/A         33  N/A N/A CALM    N/A
#CLE ELUM HS    N/A         35  34  96  CALM    30.15S
#CLE ELUM 2NW   N/A         34  34  100 SE1     N/A
#CLE ELUM LAKE  N/A         35  34  96  CALM    30.21F
#CLIFFDEL 2NW   N/A         35  35  100 N1      N/A
#GLENWOOD       N/A         36  35  96  CALM    30.24S
#MANASTASH CYN  N/A         34  31  89  CALM    30.14S
#NELSON 3SW     N/A         33  32  96  CALM    30.44F
#NILE           N/A         34  33  96  CALM    29.50F
#RONALD 2NW     N/A         36  N/A N/A N1      30.03S
#TEANAWAY 4NE   N/A         36  36  100 CALM    N/A
#TROUT LAKE 1NE N/A         37  36  96  CALM    30.24F
#TROUT LAKE 1E  N/A         35  35  100 CALM    30.16R
$$

WAZ521-120910-
SIMCOE HIGHLANDS

CITY            SKY/WX      TMP DP  RH  WIND    PRES   REMARKS
#BICKLETON HS   N/A         38  38  100 CALM    N/A
#CENTERVILLE 1SWN/A         39  37  92  CALM    30.21S
#GOLDENDALE     N/A         42  40  93  E1      N/A
#GOLDENDALE 1NE N/A         43  38  82  E3      N/A
#GOODNOE HILLS  N/A         43  39  86  N2      30.11F
#LYLE 6NE       N/A         41  40  96  CALM    30.21R
$$

WAZ026-120910-
KITTITAS VALLEY

CITY            SKY/WX      TMP DP  RH  WIND    PRES   REMARKS
ELLENSBURG AP   CLOUDY      36  32  85  NE5     30.20F FOG
#ELLENSBURG CWU N/A         34  33  96  CALM    30.22S
#ELLENSBURG 3NE N/A         33  32  96  CALM    30.20F
#ELLENSBURG     N/A         37  36  96  CALM    N/A
#KITTITAS 4N    N/A         34  31  89  N1      30.23F
#KITTITAS 3S    N/A         33  32  96  CALM    30.27S
#THORP 6N       N/A         36  35  96  E3      30.27S
$$

WAZ027-120910-
YAKIMA VALLEY

CITY            SKY/WX      TMP DP  RH  WIND    PRES   REMARKS
SUNNYSIDE AP    CLOUDY      41  41  100 CALM    30.23S FOG
YAKIMA AIRPORT  MOCLDY      39  35  85  W5      30.22S
YAKIMA-VAGABOND MOCLDY      39  36  89  S2      30.19S
#DONALD 2NE     N/A         43  36  76  N1      29.06F
#GRANDVIEW      N/A         41  39  93  CALM    30.26S
#MABTON         N/A         41  40  96  CALM    30.23R
#MOXEE 2E       N/A         39  39  100 CALM    30.17F
#NACHES 2SW     N/A         38  37  96  CALM    30.20F
#OUTLOOK DOT    N/A         N/A N/A N/A CALM    N/A
#SELAH 8E       N/A         36  36  100 CALM    N/A
#TERRACE HTS    N/A         40  39  96  CALM    30.21F
#TOPPENISH      N/A         41  40  96  CALM    30.15F
#WEST VALLEY    N/A         40  38  92  CALM    30.22F
#W YAKIMA       N/A         40  38  92  NW2     30.25S
#WHITE SWAN 5E  N/A         39  38  96  CALM    30.24F
#WILEY CITY 3W  N/A         38  34  85  CALM    30.17F
$$

WAZ028-120910-
LOWER COLUMBIA BASIN...WASHINGTON

CITY            SKY/WX      TMP DP  RH  WIND    PRES   REMARKS
HANFORD         CLOUDY      42  38  86  W7      30.22S
PASCO           MOCLDY      39  37  92  CALM    30.24S
PROSSER AWOS    N/A         43  43  100 E2      30.26S
RICHLAND AWOS   CLOUDY      42  42  100 CALM    30.24S
#BENTON CITY    N/A         41  40  96  CALM    30.16R
#CONNELL 5N     N/A         39  38  96  NW2     30.23F
#ELTOPIA 6NW    N/A         41  40  96  CALM    29.18S
#KAHLOTUS       N/A         40  39  96  S3      30.23R
#KENNEWICK 3S   N/A         42  40  93  CALM    30.24F
#PATERSON       N/A         43  41  93  CALM    30.22F
#PROSSER        N/A         42  40  93  CALM    30.24S
#SAGEMOOR 2W    N/A         41  39  93  CALM    30.09S
#TOUCHET 2S     N/A         42  40  93  CALM    30.22F
#WEST PASCO     N/A         42  39  89  CALM    30.24F
$$

WAZ029-120910-
FOOTHILLS OF THE BLUES...WASHINGTON

CITY            SKY/WX      TMP DP  RH  WIND    PRES   REMARKS
WALLA WALLA AP  FOG         41  41  100 S3      30.21S VSB 1/2
#CLYDE 6NW      N/A         39  38  96  SE1     30.22S
#DAYTON SCHOOL  N/A         42  37  82  CALM    30.20F
#PLEASANT VIEW 1N/A         40  39  96  CALM    30.27S
#PRESCOTT       N/A         43  42  96  CALM    30.22S
#WHITMAN COLLEGEN/A         42  41  96  CALM    30.29R
#WAITSBURG 5S   N/A         40  39  96  CALM    30.32S
#WAITSBURG 8N   N/A         40  29  64  CALM    30.06S
#WALLA WALLA 5E N/A         42  41  96  W5      N/A
#WALLA WALLA U  N/A         43  42  96  CALM    30.25R
#WHITMAN MISSIONN/A         42  40  93  CALM    30.26R
$$

WAZ030-120910-
BLUE MOUNTAINS...WASHINGTON

CITY            SKY/WX      TMP DP  RH  WIND    PRES   REMARKS
#DIXIE 5SE      N/A         44  42  93  CALM    30.09F
#SKI BLUEWOOD   N/A         37  35  92  CALM    30.18S
$$

ORZ009-041-WAZ024-120910-
COLUMBIA RIVER GORGE

CITY            SKY/WX      TMP DP  RH  WIND    PRES   REMARKS
HOOD RIVER AP   CLOUDY      43  43  100 CALM    30.23F FOG
THE DALLES AP   CLOUDY      43  41  93  CALM    30.25S FOG
#ARLINGTON AIRPON/A         42  40  93  CALM    30.25S
#CELILO DOT     N/A         45  42  89  SE8     N/A
#LYLE           N/A         45  44  96  CALM    30.25F
#MARYHILL 2W    N/A         45  45  100 CALM    N/A
#MOSIER 1S      N/A         44  41  89  CALM    30.23S
#MURDOCK        N/A         45  44  96  CALM    30.22S
#RUFUS DOT      N/A         45  44  96  NW3     N/A

$$

ORZ510-120910-
NORTH CENTRAL OREGON

CITY            SKY/WX      TMP DP  RH  WIND    PRES   REMARKS
#CHENOWITH 1W   N/A         41  41  100 E5      N/A
#COW CYN RST AREN/A         41  41  100 CALM    N/A
#DUFUR 9E       N/A         39  38  96  CALM    30.27S
#GRASS VALLEY 1SN/A         40  39  96  CALM    30.25S
#KENT DOT       N/A         39  35  85  N2      N/A
#MAUPIN SCHOOL  N/A         44  42  93  CALM    30.23S
#MORO SCHOOL    N/A         41  41  100 CALM    30.21F
#SHANIKO 4NW    N/A         39  39  100 SW2     30.17S
#TYGH VALLEY 2NEN/A         43  41  93  CALM    30.22S
#WAPANITIA AIRPON/A         42  41  96  CALM    30.24S
#WASCO DOT      N/A         42  41  96  CALM    N/A
#WASCO AIRPORT  N/A         42  40  93  NE1     N/A
#WASCO 5NE      N/A         41  39  93  CALM    30.24R
$$

ORZ511-120910-
CENTRAL OREGON

CITY            SKY/WX      TMP DP  RH  WIND    PRES   REMARKS
BEND AIRPORT    PTCLDY      34  34  100 CALM    30.19S
MADRAS AIRPORT  CLOUDY      43  43  100 CALM    30.22R
PRINEVILLE AP   FOG         36  36  100 CALM    30.19F VSB 1/4
REDMOND AIRPORT FOG         39  38  96  S3      30.19S VSB 3/4
#ASHWOOD SCHOOL N/A         40  39  96  CALM    30.14F
#BEND 6E        N/A         34  31  89  CALM    30.18F
#BEND 1SW       N/A         33  32  96  S2      N/A
#BEND-KIM LN    N/A         37  35  92  SW3     30.15F
#LAKE BILLY CHINN/A         44  N/A N/A S2      30.25S
#MADRAS         N/A         43  43  100 CALM    N/A
#POWELL BUTTE 3EN/A         38  38  100 CALM    N/A
#PRINEVILLE 3N  N/A         36  35  96  E2      30.22R
#WARM SPRINGS   N/A         44  42  93  CALM    30.17F

$$


ORZ509-120910-
EAST SLOPES OF OREGON CASCADES

CITY            SKY/WX      TMP DP  RH  WIND    PRES   REMARKS
SISTERS AWOS    N/A         37  37  100 CALM    30.14F
#BLUE BOX PASS  N/A         40  N/A N/A CALM    N/A
#BLACK BUTTE RNCN/A         37  35  92  CALM    30.23S
#CAMP SHERMAN   N/A         35  33  92  CALM    30.30F
#LA PINE 4NW    N/A         28  25  88  CALM    30.27R
#LAVA BUTTE DOT N/A         31  29  92  W5      N/A
#SISTERS AIRPOR N/A         38  38  100 CALM    30.17S
#SISTERS ODOT   N/A         38  N/A N/A CALM    N/A
#SISTERS 1NW    N/A         38  36  92  N20     N/A    WCI 28
#SISTERS 3N     N/A         39  36  89  CALM    30.18S
#SUNRIVER       N/A         31  29  92  CALM    30.25S
#SUTTLE LK DOT  N/A         28  28  100 SW21G32 N/A    WCI 14
#TUMALO 3W      N/A         36  35  96  CALM    30.07S
#WANOGA BUTTE D N/A         41  29  62  CALM    N/A

$$

ORZ044-120910-
LOWER COLUMBIA BASIN...OREGON

CITY            SKY/WX      TMP DP  RH  WIND    PRES   REMARKS
HERMISTON       CLOUDY      41  39  93  SE5     30.22S
#BOARDMAN SCHOOLN/A         38  36  92  CALM    30.24S
#BOARDMAN 8SW   N/A         39  37  92  CALM    30.24S
#I-84 EX 198 DOTN/A         41  41  100 CALM    N/A
#IONE SCHOOL    N/A         40  28  62  CALM    30.19S
#IRRIGON 4NW    N/A         41  41  100 CALM    N/A
#UMATILLA SCHOOLN/A         38  38  100 CALM    30.24S
#UMATILLA       N/A         42  38  86  CALM    30.17S
$$

ORZ507-120910-
NORTHERN FOOTHILLS OF THE BLUES

CITY            SKY/WX      TMP DP  RH  WIND    PRES   REMARKS
PENDLETON AIRPT FOG         39  39  100 E3      30.20S VSB 3/4
#ADAMS 3WNW     N/A         40  39  96  N1      30.22S
#ATHENA         N/A         40  39  96  CALM    30.25R
#CAYUSE         N/A         40  39  96  N1      30.22R
#HELIX SCHOOL   N/A         40  39  96  N6      30.22R
#HELIX 3N       N/A         39  38  96  N5      30.14F
#HOLDMAN 5SE    N/A         40  38  92  CALM    30.18S
#HOLDMAN 6E     N/A         38  37  96  SE1     30.04R
#PENDLETON DNTN N/A         42  36  79  CALM    30.25R
#PDT AQUATIC CTRN/A         41  36  82  NE2     30.22S
#PDT SUNRIDGE   N/A         40  39  96  CALM    30.23R
#PENDLETON 7NW  N/A         41  38  89  CALM    32.08S
#PILOT ROCK     N/A         42  36  79  CALM    30.20R
#TUTUILLA       N/A         40  38  92  CALM    30.23R
#UMAPINE 2E     N/A         43  42  96  CALM    30.20R
#WESTON SCHOOL  N/A         39  37  92  CALM    30.16R

$$

ORZ508-120910-
SOUTHERN FOOTHILLS OF THE BLUES

CITY            SKY/WX      TMP DP  RH  WIND    PRES   REMARKS
#CONDON SCHOOL  N/A         39  38  96  CALM    30.13S
#CONDON 5W      N/A         36  35  96  CALM    30.14F
#FOSSIL SCHOOL  N/A         40  39  96  CALM    30.12S
#HEPPNER EOC    N/A         41  40  96  CALM    30.14F
#HEPPNER 4NE    N/A         39  38  96  CALM    30.20F
#LEXINGTON 2SE  N/A         44  41  89  CALM    30.18F
#MIKKALO        N/A         41  40  96  CALM    30.29F
#OLEX 4N        N/A         41  40  96  CALM    30.20S
#RUGGS 5NE      N/A         39  38  96  CALM    30.33S
#RUGGS 2SW      N/A         37  36  96  W1      30.23F

$$

ORZ502-503-120910-
BLUE MOUNTAINS

CITY            SKY/WX      TMP DP  RH  WIND    PRES   REMARKS
MEACHAM         MOCLDY      39  30  70  CALM    30.19S
#BATTLE MTN DOT N/A         37  36  96  SE8     N/A
#LADD CYN SMT   N/A         39  27  62  E18     N/A    WCI 30
#LADD CREEK ODOTN/A         40  30  67  S8      N/A
#LONG CREEK HS  N/A         37  35  92  CALM    N/A
#N POWDER DOT   N/A         36  31  82  SW8     N/A
#PIKES PEAK     N/A         48  36  63  CALM    27.99S
#TROY SCHOOL    N/A         41  39  93  W1      30.15R
#UKIAH          N/A         31  29  92  CALM    30.18R
#WESTON 4E      N/A         45  32  60  E13     30.15S WCI 39
$$

ORZ505-120910-
JOHN DAY BASIN

CITY            SKY/WX      TMP DP  RH  WIND    PRES   REMARKS
JOHN DAY        MOCLDY      41  32  70  E13     30.20S WCI 34
#DAYVILLE SCHOOLN/A         40  34  79  CALM    30.15S
#MITCHELL       N/A         36  36  100 CALM    30.33S
#MITCHELL 8NW   N/A         41  38  89  CALM    30.38R
#MONUMENT HS    N/A         36  31  82  S1      30.10R
#MT. VERNON 5SE N/A         48  32  54  S6      30.15R
#WINLOCK        N/A         38  34  85  CALM    30.14S
$$

ORZ506-120910-
OCHOCO AND JOHN DAY HIGHLANDS

CITY            SKY/WX      TMP DP  RH  WIND    PRES   REMARKS
#HORSE RIDGE DO N/A         33  31  92  CALM    N/A
#KEYES SMT DOT  N/A         43  33  67  E9      N/A
#PAULINA SCHOOL N/A         51  37  59  CALM    30.15S
#PINE MTN OBS   N/A         42  32  67  S15     N/A    WCI 34
#PRAIRIE CITY   N/A         32  26  78  CALM    30.19R
#SENECA         N/A         29  N/A N/A CALM    N/A
#SENECA 9NW     N/A         27  25  92  CALM    30.29R
$$

ORZ049-120910-
GRANDE RONDE VALLEY

CITY            SKY/WX      TMP DP  RH  WIND    PRES   REMARKS
LA GRANDE       CLOUDY      45  28  51  S15G24  30.23S WCI 38
#COVE           N/A         36  33  89  CALM    30.26R
#COVE SCHOOL    N/A         38  33  82  CALM    30.24S
#COVE 6NW       N/A         39  31  73  S8      30.26S
#ELGIN 3N       N/A         36  28  72  NE2     30.21R
#ELGIN 1E       N/A         40  33  76  CALM    N/A
#IMBLER SCHOOL  N/A         39  32  76  S8      30.20R
#ISLAND CITY 4N N/A         49  48  96  CALM    30.13S
#LADD CYN DOT   N/A         44  32  62  S26     N/A    WCI 35
#UNION 1S       N/A         40  33  76  S14G24  30.21S WCI 32
$$

ORZ050-120910-
WALLOWA COUNTY

CITY            SKY/WX      TMP DP  RH  WIND    PRES   REMARKS
JOSEPH AIRPORT  CLOUDY      N/A N/A N/A CALM    30.24F HAZE
#ENTERPRISE AP  N/A         33  31  92  CALM    30.14F
#ENTERPRISE HS  N/A         34  32  92  CALM    30.22F
#IMNAHA SCHOOL  N/A         42  40  93  CALM    30.22S
#IMNAHA 10S     N/A         39  36  89  CALM    30.20R
#JOSEPH 3N      N/A         32  29  89  CALM    30.22F
#JOSEPH 3W      N/A         33  31  92  CALM    30.03F
#LOSTINE        N/A         33  32  96  CALM    30.14F
#MT HOWARD 8000 N/A         41  24  50  SW9     30.25F
#WALLOWA SCHOOL N/A         32  31  96  CALM    30.21S



$$



USA.gov is the U.S. government's official web portal to all federal, state and local government web resources and services.